User: anonymous   Login
Location: Newark
(23.3970°S, 47.6010°W)
Time: 20:43:05
(UTC+00:00)
Language:

Explorer 11/Cluster Stage 4 - Orbit

View from above orbital plane
View from above orbital plane
View from above satellite
View from above satellite

Ground track
Ground track

The orbit data is extracted from the following two-line orbital elements,

1   107U 61013A   20047.59408979 +.00000243 +00000-0 +14829-4 0  9990
2   107 028.7862 149.6505 0547193 064.2964 301.3070 14.08899463949023
Epoch (UTC): 16 February 2020 14:15:29
Eccentricity: 0.0547193
inclination: 28.7862°
perigee height: 467 km
apogee height: 1259 km
right ascension of ascending node: 149.6505°
argument of perigee: 64.2964°
revolutions per day: 14.08899463
mean anomaly at epoch: 301.3070°
orbit number at epoch: 94902

The dashed part of the orbit path shows where the satellite is in the earth's shadow,  

DLR